Flag for Sweden Weather past 2 weeks in Kiruna, Sweden

Now
39 °F

Clear.


Feels Like: 35 °F
Forecast: 34 / 55 °F
Wind: 6 mph from Southwest

Location: Kiruna Airport

Current Time: Sep 15, 2014 at 6:36:46 AM

Latest Report: Sep 15, 2014 at 5:50 AM


Visibility: 10 mi

Pressure: 30.42 "Hg

Humidity: 70%

Dew point: 30 °F

Location of KirunaLocation

Historic Weather in Kiruna — Graph

°F

Kiruna temperature yesterday

Maximum temperature yesterday: 52 °F (at 12:20 AM)
Minimum temperature yesterday: 39 °F (at 11:20 PM)
Average temperature yesterday: 47 °F

Past Weeks' High & Low Weather Summary

 TemperatureHumidityPressure
High64 °F (Aug 31, 3:20 PM)100% (Sep 1, 4:50 AM)30.42 "Hg (Sep 1, 4:50 AM)
Low34 °F (Sep 13, 2:20 AM)40% (Aug 31, 4:20 PM)29.77 "Hg (Sep 9, 6:20 AM)
Average50 °F73%30.02 "Hg
* Reported Aug 31 5:20 AM — Sep 15 5:20 AM, Kiruna, Weather by CustomWeather, © 2014

Note: Actual official high and low records may vary slightly from our data, if they occured in-between our weather recording intervals... More about our weather records

Advertising

Kiruna weather history for previous 24 hours

 ConditionsComfort  
Time TempWeatherWind HumidityBarometerVisibility
5:20 AM
Sep 15
39 °FOvercast.7 mph70%30.39 "HgN/A
4:20 AM36 °FPassing clouds.7 mph75%30.42 "HgN/A
3:50 AM36 °FPassing clouds.7 mph75%30.42 "HgN/A
3:20 AM36 °FPassing clouds.7 mph70%30.42 "HgN/A
2:50 AM36 °FChilly.3 mph70%30.42 "HgN/A
2:20 AM39 °FChilly.7 mph61%30.42 "HgN/A
1:50 AM36 °FChilly.6 mph75%30.42 "HgN/A
1:20 AM37 °FChilly.9 mph70%30.39 "HgN/A
12:50 AM37 °FChilly.6 mph70%30.39 "HgN/A
12:20 AM37 °FChilly.9 mph65%30.39 "HgN/A
11:50 PM
Sep 14
39 °FChilly.5 mph65%30.42 "HgN/A
11:20 PM39 °FChilly.8 mph65%30.39 "HgN/A
10:50 PM41 °FClear.8 mph61%30.39 "Hg10 mi
10:20 PM43 °FPassing clouds.6 mph53%30.39 "HgN/A
9:50 PM43 °FClear.8 mph57%30.39 "Hg10 mi
9:20 PM43 °FPassing clouds.6 mph57%30.39 "HgN/A
8:50 PM45 °FClear.8 mph53%30.36 "Hg10 mi
8:20 PM45 °FPassing clouds.3 mph53%30.36 "HgN/A
7:50 PM45 °FPassing clouds.3 mph53%30.36 "HgN/A
7:20 PM46 °FSunny.12 mph50%30.36 "Hg10 mi
6:50 PM46 °FSunny.10 mph50%30.36 "Hg10 mi
6:20 PM48 °FSunny.3 mph46%30.36 "Hg10 mi
5:50 PM48 °FPassing clouds.7 mph46%30.33 "HgN/A
5:20 PM48 °FSunny.9 mph46%30.33 "Hg10 mi
4:50 PM48 °FPassing clouds.8 mph46%30.33 "HgN/A
4:20 PM50 °FSunny.10 mph40%30.33 "Hg10 mi
3:50 PM50 °FSunny.14 mph43%30.30 "Hg10 mi
3:20 PM50 °FSunny.10 mph47%30.33 "Hg10 mi
2:50 PM50 °FSunny.12 mph43%30.33 "Hg10 mi
2:20 PM52 °FSunny.8 mph47%30.30 "Hg10 mi
1:50 PM52 °FSunny.10 mph47%30.30 "Hg10 mi
1:20 PM52 °FSunny.12 mph41%30.30 "Hg10 mi
12:50 PM52 °FPassing clouds.6 mph41%30.27 "HgN/A
12:20 PM52 °FPartly sunny.14 mph44%30.27 "HgN/A
11:50 AM52 °FCool.14 mph47%30.27 "HgN/A
11:20 AM50 °FCool.14 mph50%30.24 "HgN/A
10:50 AM50 °FCool.15 mph50%30.24 "HgN/A
10:20 AM48 °FCool.13 mph54%30.21 "HgN/A
9:50 AM48 °FCool.17 mph54%30.21 "HgN/A
9:20 AM48 °FCool.13 mph54%30.21 "HgN/A
8:50 AM46 °FCool.12 mph57%30.18 "HgN/A
8:20 AM46 °FCool.12 mph57%30.18 "HgN/A
7:50 AM46 °FCool.12 mph57%30.18 "HgN/A
7:20 AM46 °FPassing clouds.13 mph57%30.18 "HgN/A
6:50 AM45 °FQuite cool.13 mph57%30.15 "HgN/A
6:20 AM43 °FQuite cool.12 mph61%30.15 "HgN/A
Weather by CustomWeather, © 2014

See weather overviewHow to use our weather pages